Year,Month,Day,Hour,Minute,Value (Times are PST for temperature in C)
2013,06,18,07,00,13.10
2013,06,18,07,01,13.10
2013,06,18,07,02,13.10
2013,06,18,07,03,13.10
2013,06,18,07,04,13.10
2013,06,18,07,05,13.10
2013,06,18,07,06,13.10
2013,06,18,07,07,13.10
2013,06,18,07,08,13.10
2013,06,18,07,09,13.20
2013,06,18,07,10,13.20
2013,06,18,07,11,13.30
2013,06,18,07,12,13.30
2013,06,18,07,13,13.30
2013,06,18,07,14,13.30
2013,06,18,07,15,13.30
2013,06,18,07,16,13.30
2013,06,18,07,17,13.30
2013,06,18,07,18,13.30
2013,06,18,07,19,13.30
2013,06,18,07,20,13.30
2013,06,18,07,21,13.30
2013,06,18,07,22,13.30
2013,06,18,07,23,13.30
2013,06,18,07,24,13.30
2013,06,18,07,25,13.30
2013,06,18,07,26,13.20
2013,06,18,07,27,13.20
2013,06,18,07,28,13.20
2013,06,18,07,29,13.20
2013,06,18,07,30,13.10
2013,06,18,07,31,13.10
2013,06,18,07,32,13.10
2013,06,18,07,33,13.10
2013,06,18,07,34,13.00
2013,06,18,07,35,13.00
2013,06,18,07,36,13.00
2013,06,18,07,37,13.00
2013,06,18,07,38,13.00
2013,06,18,07,39,13.00
2013,06,18,07,40,13.00
2013,06,18,07,41,12.90
2013,06,18,07,42,12.90
2013,06,18,07,43,12.90
2013,06,18,07,44,12.90
2013,06,18,07,45,12.90
2013,06,18,07,46,12.90
2013,06,18,07,47,12.90
2013,06,18,07,48,12.80
2013,06,18,07,49,12.80
2013,06,18,07,50,12.80
2013,06,18,07,51,12.80
2013,06,18,07,52,12.80
2013,06,18,07,53,12.80
2013,06,18,07,54,12.80
2013,06,18,07,55,12.80
2013,06,18,07,56,12.80
2013,06,18,07,57,12.80
2013,06,18,07,58,12.80
2013,06,18,07,59,12.80
2013,06,18,08,00,12.80
2013,06,18,08,01,12.80
2013,06,18,08,02,12.80
2013,06,18,08,03,12.80
2013,06,18,08,04,12.80
2013,06,18,08,05,12.80
2013,06,18,08,06,12.70
2013,06,18,08,07,12.80
2013,06,18,08,08,12.80
2013,06,18,08,09,12.80
2013,06,18,08,10,12.80
2013,06,18,08,11,12.80
2013,06,18,08,12,12.80
2013,06,18,08,13,12.80
2013,06,18,08,14,12.80
2013,06,18,08,15,12.80
2013,06,18,08,16,12.80
2013,06,18,08,17,12.80
2013,06,18,08,18,12.90
2013,06,18,08,19,12.90
2013,06,18,08,20,12.90
2013,06,18,08,21,12.90
2013,06,18,08,22,12.90
2013,06,18,08,23,12.90
2013,06,18,08,24,12.90
2013,06,18,08,25,12.90
2013,06,18,08,26,12.80
2013,06,18,08,27,12.90
2013,06,18,08,28,12.90
2013,06,18,08,29,12.90
2013,06,18,08,30,13.00
2013,06,18,08,31,13.00
2013,06,18,08,32,13.00
2013,06,18,08,33,13.10
2013,06,18,08,34,13.10
2013,06,18,08,35,13.20
2013,06,18,08,36,13.20
2013,06,18,08,37,13.30
2013,06,18,08,38,13.30
2013,06,18,08,39,13.30
2013,06,18,08,40,13.30
2013,06,18,08,41,13.30
2013,06,18,08,42,13.30
2013,06,18,08,43,13.40
2013,06,18,08,44,13.40
2013,06,18,08,45,13.40
2013,06,18,08,46,13.40
2013,06,18,08,47,13.50
2013,06,18,08,48,13.50
2013,06,18,08,49,13.50
2013,06,18,08,50,13.60
2013,06,18,08,51,13.70
2013,06,18,08,52,13.70
2013,06,18,08,53,13.70
2013,06,18,08,54,13.80
2013,06,18,08,55,13.90
2013,06,18,08,56,14.00
2013,06,18,08,57,14.00
2013,06,18,08,58,14.10
2013,06,18,08,59,14.20
2013,06,18,09,00,14.20
2013,06,18,09,01,14.20
2013,06,18,09,02,14.20
2013,06,18,09,03,14.20
2013,06,18,09,04,14.20
2013,06,18,09,05,14.30
2013,06,18,09,06,14.30
2013,06,18,09,07,14.30
2013,06,18,09,08,14.30
2013,06,18,09,09,14.40
2013,06,18,09,10,14.40
2013,06,18,09,11,14.50
2013,06,18,09,12,14.60
2013,06,18,09,13,14.60
2013,06,18,09,14,14.60
2013,06,18,09,15,14.70
2013,06,18,09,16,14.70
2013,06,18,09,17,14.80
2013,06,18,09,18,14.80
2013,06,18,09,19,14.80
2013,06,18,09,20,14.90
2013,06,18,09,21,14.90
2013,06,18,09,22,15.00
2013,06,18,09,23,15.10
2013,06,18,09,24,15.10
2013,06,18,09,25,15.20
2013,06,18,09,26,15.30
2013,06,18,09,27,15.30
2013,06,18,09,28,15.30
2013,06,18,09,29,15.30
2013,06,18,09,30,15.10
2013,06,18,09,31,14.90
2013,06,18,09,32,14.80
2013,06,18,09,33,14.80
2013,06,18,09,34,14.80
2013,06,18,09,35,14.80
2013,06,18,09,36,14.80
2013,06,18,09,37,14.80
2013,06,18,09,38,14.90
2013,06,18,09,39,15.00
2013,06,18,09,40,15.10
2013,06,18,09,41,15.10
2013,06,18,09,42,15.00
2013,06,18,09,43,14.90
2013,06,18,09,44,14.80
2013,06,18,09,45,14.80
2013,06,18,09,46,14.80
2013,06,18,09,47,14.80
2013,06,18,09,48,14.90
2013,06,18,09,49,14.90
2013,06,18,09,50,14.90
2013,06,18,09,51,14.90
2013,06,18,09,52,14.90
2013,06,18,09,53,14.90
2013,06,18,09,54,14.80
2013,06,18,09,55,14.80
2013,06,18,09,56,14.70
2013,06,18,09,57,14.70
2013,06,18,09,58,14.70
2013,06,18,09,59,14.80
2013,06,18,10,00,14.80
2013,06,18,10,01,14.80
2013,06,18,10,02,14.90
2013,06,18,10,03,14.90
2013,06,18,10,04,15.00
2013,06,18,10,05,15.00
2013,06,18,10,06,15.00
2013,06,18,10,07,15.10
2013,06,18,10,08,15.20
2013,06,18,10,09,15.30
2013,06,18,10,10,15.40
2013,06,18,10,11,15.50
2013,06,18,10,12,15.60
2013,06,18,10,13,15.60
2013,06,18,10,14,15.70
2013,06,18,10,15,15.80
2013,06,18,10,16,15.90
2013,06,18,10,17,16.00
2013,06,18,10,18,16.10
2013,06,18,10,19,16.20
2013,06,18,10,20,16.30
2013,06,18,10,21,16.40
2013,06,18,10,22,16.40
2013,06,18,10,23,16.40
2013,06,18,10,24,16.20
2013,06,18,10,25,16.20
2013,06,18,10,26,16.10
2013,06,18,10,27,16.10
2013,06,18,10,28,16.20
2013,06,18,10,29,16.20
2013,06,18,10,30,16.10
2013,06,18,10,31,16.10
2013,06,18,10,32,16.00
2013,06,18,10,33,15.80
2013,06,18,10,34,15.80
2013,06,18,10,35,15.80
2013,06,18,10,36,15.80
2013,06,18,10,37,15.80
2013,06,18,10,38,15.80
2013,06,18,10,39,15.80
2013,06,18,10,40,15.80
2013,06,18,10,41,15.90
2013,06,18,10,42,16.00
2013,06,18,10,43,16.10
2013,06,18,10,44,16.10
2013,06,18,10,45,16.00
2013,06,18,10,46,15.90
2013,06,18,10,47,16.00
2013,06,18,10,48,16.10
2013,06,18,10,49,16.10
2013,06,18,10,50,16.10
2013,06,18,10,51,16.10
2013,06,18,10,52,16.20
2013,06,18,10,53,16.30
2013,06,18,10,54,16.40
2013,06,18,10,55,16.40
2013,06,18,10,56,16.40
2013,06,18,10,57,16.50
2013,06,18,10,58,16.70
2013,06,18,10,59,16.80
2013,06,18,11,00,17.00
2013,06,18,11,01,17.10
2013,06,18,11,02,17.30
2013,06,18,11,03,17.40
2013,06,18,11,04,17.50
2013,06,18,11,05,17.60
2013,06,18,11,06,17.70
2013,06,18,11,07,17.70
2013,06,18,11,08,17.70
2013,06,18,11,09,17.70
2013,06,18,11,10,17.60
2013,06,18,11,11,17.50
2013,06,18,11,12,17.30
2013,06,18,11,13,17.20
2013,06,18,11,14,17.20
2013,06,18,11,15,17.10
2013,06,18,11,16,17.10
2013,06,18,11,17,17.10
2013,06,18,11,18,16.90
2013,06,18,11,19,16.90
2013,06,18,11,20,16.90
2013,06,18,11,21,17.00
2013,06,18,11,22,17.00
2013,06,18,11,23,17.10
2013,06,18,11,24,17.10
2013,06,18,11,25,17.30
2013,06,18,11,26,17.40
2013,06,18,11,27,17.50
2013,06,18,11,28,17.60
2013,06,18,11,29,17.60
2013,06,18,11,30,17.50
2013,06,18,11,31,17.50
2013,06,18,11,32,17.50
2013,06,18,11,33,17.50
2013,06,18,11,34,17.60
2013,06,18,11,35,17.60
2013,06,18,11,36,17.60
2013,06,18,11,37,17.70
2013,06,18,11,38,17.80
2013,06,18,11,39,17.90
2013,06,18,11,40,18.10
2013,06,18,11,41,18.00
2013,06,18,11,42,18.00
2013,06,18,11,43,18.10
2013,06,18,11,44,18.00
2013,06,18,11,45,17.90
2013,06,18,11,46,17.90
2013,06,18,11,47,17.90
2013,06,18,11,48,17.80
2013,06,18,11,49,17.80
2013,06,18,11,50,17.90
2013,06,18,11,51,17.90
2013,06,18,11,52,17.90
2013,06,18,11,53,17.90
2013,06,18,11,54,17.80
2013,06,18,11,55,17.80
2013,06,18,11,56,17.90
2013,06,18,11,57,17.90
2013,06,18,11,58,17.90
2013,06,18,11,59,17.80
2013,06,18,12,00,17.70
2013,06,18,12,01,17.60
2013,06,18,12,02,17.60
2013,06,18,12,03,17.50
2013,06,18,12,04,17.50
2013,06,18,12,05,17.60
2013,06,18,12,06,17.50
2013,06,18,12,07,17.50
2013,06,18,12,08,17.40
2013,06,18,12,09,17.30
2013,06,18,12,10,17.30
2013,06,18,12,11,17.30
2013,06,18,12,12,17.30
2013,06,18,12,13,17.30
2013,06,18,12,14,17.40
2013,06,18,12,15,17.50
2013,06,18,12,16,17.60
2013,06,18,12,17,17.80
2013,06,18,12,18,17.90
2013,06,18,12,19,17.90
2013,06,18,12,20,17.90
2013,06,18,12,21,17.90
2013,06,18,12,22,17.90
2013,06,18,12,23,17.90
2013,06,18,12,24,17.70
2013,06,18,12,25,17.60
2013,06,18,12,26,17.60
2013,06,18,12,27,17.60
2013,06,18,12,28,17.50
2013,06,18,12,29,17.50
2013,06,18,12,30,17.50
2013,06,18,12,31,17.50
2013,06,18,12,32,17.50
2013,06,18,12,33,17.50
2013,06,18,12,34,17.50
2013,06,18,12,35,17.60
2013,06,18,12,36,17.70
2013,06,18,12,37,17.70
2013,06,18,12,38,17.80
2013,06,18,12,39,17.90
2013,06,18,12,40,18.10
2013,06,18,12,41,18.20
2013,06,18,12,42,18.40
2013,06,18,12,43,18.50
2013,06,18,12,44,18.70
2013,06,18,12,45,18.80
2013,06,18,12,46,18.90
2013,06,18,12,47,18.80
2013,06,18,12,48,18.80
2013,06,18,12,49,18.70
2013,06,18,12,50,18.80
2013,06,18,12,51,18.90
2013,06,18,12,52,18.90
2013,06,18,12,53,18.90
2013,06,18,12,54,18.80
2013,06,18,12,55,18.80
2013,06,18,12,56,18.80
2013,06,18,12,57,18.90
2013,06,18,12,58,18.90
2013,06,18,12,59,18.80
2013,06,18,13,00,18.90
2013,06,18,13,01,18.80
2013,06,18,13,02,18.80
2013,06,18,13,03,18.80
2013,06,18,13,04,18.90
2013,06,18,13,05,18.90
2013,06,18,13,06,18.90
2013,06,18,13,07,18.90
2013,06,18,13,08,18.90
2013,06,18,13,09,19.10
2013,06,18,13,10,19.10
2013,06,18,13,11,19.10
2013,06,18,13,12,19.10
2013,06,18,13,13,19.10
2013,06,18,13,14,18.90
2013,06,18,13,15,18.70
2013,06,18,13,16,18.60
2013,06,18,13,17,18.70
2013,06,18,13,18,18.70
2013,06,18,13,19,18.80
2013,06,18,13,20,19.00
2013,06,18,13,21,19.10
2013,06,18,13,22,19.20
2013,06,18,13,23,19.20
2013,06,18,13,24,19.20
2013,06,18,13,25,19.30
2013,06,18,13,26,19.20
2013,06,18,13,27,19.10
2013,06,18,13,28,19.10
2013,06,18,13,29,19.10
2013,06,18,13,30,19.10
2013,06,18,13,31,19.00
2013,06,18,13,32,18.90
2013,06,18,13,33,18.90
2013,06,18,13,34,18.90
2013,06,18,13,35,19.10
2013,06,18,13,36,19.10
2013,06,18,13,37,19.10
2013,06,18,13,38,19.10
2013,06,18,13,39,19.20
2013,06,18,13,40,19.30
2013,06,18,13,41,19.30
2013,06,18,13,42,19.10
2013,06,18,13,43,18.90
2013,06,18,13,44,18.80
2013,06,18,13,45,18.70
2013,06,18,13,46,18.60
2013,06,18,13,47,18.50
2013,06,18,13,48,18.30
2013,06,18,13,49,18.30
2013,06,18,13,50,18.20
2013,06,18,13,51,18.30
2013,06,18,13,52,18.30
2013,06,18,13,53,18.30
2013,06,18,13,54,18.40
2013,06,18,13,55,18.40
2013,06,18,13,56,18.50
2013,06,18,13,57,18.60
2013,06,18,13,58,18.70
2013,06,18,13,59,18.70
2013,06,18,14,00,18.70
2013,06,18,14,01,18.70
2013,06,18,14,02,18.70
2013,06,18,14,03,18.70
2013,06,18,14,04,18.60
2013,06,18,14,05,18.60
2013,06,18,14,06,18.50
2013,06,18,14,07,18.40
2013,06,18,14,08,18.40
2013,06,18,14,09,18.30
2013,06,18,14,10,18.20
2013,06,18,14,11,18.20
2013,06,18,14,12,18.20
2013,06,18,14,13,18.20
2013,06,18,14,14,18.20
2013,06,18,14,15,18.20
2013,06,18,14,16,18.20
2013,06,18,14,17,18.20
2013,06,18,14,18,18.20
2013,06,18,14,19,18.20
2013,06,18,14,20,18.20
2013,06,18,14,21,18.20
2013,06,18,14,22,18.30
2013,06,18,14,23,18.40
2013,06,18,14,24,18.50
2013,06,18,14,25,18.50
2013,06,18,14,26,18.50
2013,06,18,14,27,18.50
2013,06,18,14,28,18.50
2013,06,18,14,29,18.50
2013,06,18,14,30,18.70
2013,06,18,14,31,18.70
2013,06,18,14,32,18.80
2013,06,18,14,33,18.80
2013,06,18,14,34,18.80
2013,06,18,14,35,18.90
2013,06,18,14,36,18.90
2013,06,18,14,37,18.90
2013,06,18,14,38,19.00
2013,06,18,14,39,19.10
2013,06,18,14,40,19.30
2013,06,18,14,41,19.50
2013,06,18,14,42,19.50
2013,06,18,14,43,19.60
2013,06,18,14,44,19.50
2013,06,18,14,45,19.50
2013,06,18,14,46,19.50
2013,06,18,14,47,19.50
2013,06,18,14,48,19.60
2013,06,18,14,49,19.60
2013,06,18,14,50,19.60
2013,06,18,14,51,19.60
2013,06,18,14,52,19.50
2013,06,18,14,53,19.40
2013,06,18,14,54,19.40
2013,06,18,14,55,19.40
2013,06,18,14,56,19.50
2013,06,18,14,57,19.50
2013,06,18,14,58,19.50
2013,06,18,14,59,19.50
2013,06,18,15,00,19.60
2013,06,18,15,01,19.70
2013,06,18,15,02,19.70
2013,06,18,15,03,19.80
2013,06,18,15,04,19.90
2013,06,18,15,05,19.90
2013,06,18,15,06,19.90
2013,06,18,15,07,19.90
2013,06,18,15,08,19.90
2013,06,18,15,09,19.90
2013,06,18,15,10,19.90
2013,06,18,15,11,19.90
2013,06,18,15,12,19.90
2013,06,18,15,13,20.10
2013,06,18,15,14,20.10
2013,06,18,15,15,20.10
2013,06,18,15,16,19.90
2013,06,18,15,17,19.70
2013,06,18,15,18,19.60
2013,06,18,15,19,19.50
2013,06,18,15,20,19.50
2013,06,18,15,21,19.60
2013,06,18,15,22,19.70
2013,06,18,15,23,19.70
2013,06,18,15,24,19.80
2013,06,18,15,25,19.90
2013,06,18,15,26,19.90
2013,06,18,15,27,19.90
2013,06,18,15,28,20.00
2013,06,18,15,29,20.00
2013,06,18,15,30,19.80
2013,06,18,15,31,19.60
2013,06,18,15,32,19.50
2013,06,18,15,33,19.50
2013,06,18,15,34,19.60
2013,06,18,15,35,19.60
2013,06,18,15,36,19.70
2013,06,18,15,37,19.80
2013,06,18,15,38,19.90
2013,06,18,15,39,19.90
2013,06,18,15,40,19.70
2013,06,18,15,41,19.50
2013,06,18,15,42,19.40
2013,06,18,15,43,19.40
2013,06,18,15,44,19.40
2013,06,18,15,45,19.50
2013,06,18,15,46,19.50
2013,06,18,15,47,19.50
2013,06,18,15,48,19.50
2013,06,18,15,49,19.40
2013,06,18,15,50,19.30
2013,06,18,15,51,19.10
2013,06,18,15,52,19.10
2013,06,18,15,53,19.10
2013,06,18,15,54,19.10
2013,06,18,15,55,19.10
2013,06,18,15,56,19.20
2013,06,18,15,57,19.20
2013,06,18,15,58,19.20
2013,06,18,15,59,19.20
2013,06,18,16,00,19.30
2013,06,18,16,01,19.30
2013,06,18,16,02,19.20
2013,06,18,16,03,19.20
2013,06,18,16,04,19.20
2013,06,18,16,05,19.20
2013,06,18,16,06,19.20
2013,06,18,16,07,19.20
2013,06,18,16,08,19.10
2013,06,18,16,09,19.20
2013,06,18,16,10,19.20
2013,06,18,16,11,19.20
2013,06,18,16,12,19.20
2013,06,18,16,13,19.20
2013,06,18,16,14,19.20
2013,06,18,16,15,19.10
2013,06,18,16,16,19.00
2013,06,18,16,17,18.90
2013,06,18,16,18,18.90
2013,06,18,16,19,18.90
2013,06,18,16,20,19.00
2013,06,18,16,21,19.10
2013,06,18,16,22,19.10
2013,06,18,16,23,19.10
2013,06,18,16,24,19.10
2013,06,18,16,25,19.20
2013,06,18,16,26,19.30
2013,06,18,16,27,19.40
2013,06,18,16,28,19.40
2013,06,18,16,29,19.50
2013,06,18,16,30,19.50
2013,06,18,16,31,19.40
2013,06,18,16,32,19.40
2013,06,18,16,33,19.30
2013,06,18,16,34,19.30
2013,06,18,16,35,19.30
2013,06,18,16,36,19.30
2013,06,18,16,37,19.40
2013,06,18,16,38,19.40
2013,06,18,16,39,19.50
2013,06,18,16,40,19.60
2013,06,18,16,41,19.70
2013,06,18,16,42,19.80
2013,06,18,16,43,19.70
2013,06,18,16,44,19.60
2013,06,18,16,45,19.40
2013,06,18,16,46,19.20
2013,06,18,16,47,19.20
2013,06,18,16,48,19.20
2013,06,18,16,49,19.20
2013,06,18,16,50,19.20
2013,06,18,16,51,19.10
2013,06,18,16,52,19.20
2013,06,18,16,53,19.30
2013,06,18,16,54,19.30
2013,06,18,16,55,19.40
2013,06,18,16,56,19.50
2013,06,18,16,57,19.50
2013,06,18,16,58,19.60
2013,06,18,16,59,19.60
2013,06,18,17,00,19.70
2013,06,18,17,01,19.80
2013,06,18,17,02,19.90
2013,06,18,17,03,19.90
2013,06,18,17,04,20.00
2013,06,18,17,05,20.10
2013,06,18,17,06,20.20
2013,06,18,17,07,20.20
2013,06,18,17,08,20.30
2013,06,18,17,09,20.30
2013,06,18,17,10,20.40
2013,06,18,17,11,20.40
2013,06,18,17,12,20.40
2013,06,18,17,13,20.40
2013,06,18,17,14,20.40
2013,06,18,17,15,20.40
2013,06,18,17,16,20.50
2013,06,18,17,17,20.50
2013,06,18,17,18,20.50
2013,06,18,17,19,20.40
2013,06,18,17,20,20.40
2013,06,18,17,21,20.40
2013,06,18,17,22,20.50
2013,06,18,17,23,20.50
2013,06,18,17,24,20.50
2013,06,18,17,25,20.60
2013,06,18,17,26,20.50
2013,06,18,17,27,20.50
2013,06,18,17,28,20.50
2013,06,18,17,29,20.50
2013,06,18,17,30,20.50
2013,06,18,17,31,20.40
2013,06,18,17,32,20.30
2013,06,18,17,33,20.30
2013,06,18,17,34,20.30
2013,06,18,17,35,20.20
2013,06,18,17,36,20.00
2013,06,18,17,37,19.90
2013,06,18,17,38,19.70
2013,06,18,17,39,19.60
2013,06,18,17,40,19.50
2013,06,18,17,41,19.40
2013,06,18,17,42,19.30
2013,06,18,17,43,19.30
2013,06,18,17,44,19.30
2013,06,18,17,45,19.20
2013,06,18,17,46,19.30
2013,06,18,17,47,19.40
2013,06,18,17,48,19.50
2013,06,18,17,49,19.60
2013,06,18,17,50,19.60
2013,06,18,17,51,19.60
2013,06,18,17,52,19.60
2013,06,18,17,53,19.70
2013,06,18,17,54,19.70
2013,06,18,17,55,19.70
2013,06,18,17,56,19.70
2013,06,18,17,57,19.80
2013,06,18,17,58,19.80
2013,06,18,17,59,19.80
2013,06,18,18,00,19.80
2013,06,18,18,01,19.80
2013,06,18,18,02,19.90
2013,06,18,18,03,19.90
2013,06,18,18,04,20.10
2013,06,18,18,05,20.10
2013,06,18,18,06,20.10
2013,06,18,18,07,20.20
2013,06,18,18,08,20.20
2013,06,18,18,09,20.20
2013,06,18,18,10,20.20
2013,06,18,18,11,20.10
2013,06,18,18,12,19.90
2013,06,18,18,13,19.80
2013,06,18,18,14,19.70
2013,06,18,18,15,19.70
2013,06,18,18,16,19.70
2013,06,18,18,17,19.70
2013,06,18,18,18,19.80
2013,06,18,18,19,19.80
2013,06,18,18,20,19.90
2013,06,18,18,21,19.90
2013,06,18,18,22,19.90
2013,06,18,18,23,20.00
2013,06,18,18,24,20.10
2013,06,18,18,25,20.10
2013,06,18,18,26,20.00
2013,06,18,18,27,19.90
2013,06,18,18,28,19.90
2013,06,18,18,29,19.90
2013,06,18,18,30,19.90
2013,06,18,18,31,19.90
2013,06,18,18,32,19.90
2013,06,18,18,33,19.90
2013,06,18,18,34,19.80
2013,06,18,18,35,19.70
2013,06,18,18,36,19.60
2013,06,18,18,37,19.60
2013,06,18,18,38,19.40
2013,06,18,18,39,19.30
2013,06,18,18,40,19.30
2013,06,18,18,41,19.20
2013,06,18,18,42,19.20
2013,06,18,18,43,19.20
2013,06,18,18,44,19.30
2013,06,18,18,45,19.30
2013,06,18,18,46,19.40
2013,06,18,18,47,19.40
2013,06,18,18,48,19.50
2013,06,18,18,49,19.40
2013,06,18,18,50,19.40
2013,06,18,18,51,19.30
2013,06,18,18,52,19.30
2013,06,18,18,53,19.40
2013,06,18,18,54,19.30
2013,06,18,18,55,19.30
2013,06,18,18,56,19.20
2013,06,18,18,57,19.10
2013,06,18,18,58,19.10
2013,06,18,18,59,19.00
2013,06,18,19,00,18.90
2013,06,18,19,01,18.90
2013,06,18,19,02,18.90
2013,06,18,19,03,18.90
2013,06,18,19,04,19.00
2013,06,18,19,05,19.10
2013,06,18,19,06,19.10
2013,06,18,19,07,19.10
2013,06,18,19,08,19.10
2013,06,18,19,09,19.00
2013,06,18,19,10,18.90
2013,06,18,19,11,18.90
2013,06,18,19,12,18.80
2013,06,18,19,13,18.80
2013,06,18,19,14,18.80
2013,06,18,19,15,18.80
2013,06,18,19,16,18.80
2013,06,18,19,17,18.80
2013,06,18,19,18,18.80
2013,06,18,19,19,18.80
2013,06,18,19,20,18.90
2013,06,18,19,21,18.90
2013,06,18,19,22,18.90
2013,06,18,19,23,18.80
2013,06,18,19,24,18.80
2013,06,18,19,25,18.70
2013,06,18,19,26,18.70
2013,06,18,19,27,18.60
2013,06,18,19,28,18.60
2013,06,18,19,29,18.70
2013,06,18,19,30,18.70
2013,06,18,19,31,18.70
2013,06,18,19,32,18.60
2013,06,18,19,33,18.50
2013,06,18,19,34,18.50
2013,06,18,19,35,18.50
2013,06,18,19,36,18.50
2013,06,18,19,37,18.50
2013,06,18,19,38,18.50
2013,06,18,19,39,18.50
2013,06,18,19,40,18.50
2013,06,18,19,41,18.50
2013,06,18,19,42,18.50
2013,06,18,19,43,18.50
2013,06,18,19,44,18.50
2013,06,18,19,45,18.60
2013,06,18,19,46,18.60
2013,06,18,19,47,18.60
2013,06,18,19,48,18.50
2013,06,18,19,49,18.50
2013,06,18,19,50,18.40
2013,06,18,19,51,18.40
2013,06,18,19,52,18.40
2013,06,18,19,53,18.40
2013,06,18,19,54,18.40
2013,06,18,19,55,18.40
2013,06,18,19,56,18.40
2013,06,18,19,57,18.40
2013,06,18,19,58,18.40
2013,06,18,19,59,18.40
2013,06,18,20,00,18.40
2013,06,18,20,01,18.40
2013,06,18,20,02,18.40
2013,06,18,20,03,18.40
2013,06,18,20,04,18.40
2013,06,18,20,05,18.40
2013,06,18,20,06,18.40
2013,06,18,20,07,18.40
2013,06,18,20,08,18.30
2013,06,18,20,09,18.30
2013,06,18,20,10,18.30
2013,06,18,20,11,18.20
2013,06,18,20,12,18.20
2013,06,18,20,13,18.20
2013,06,18,20,14,18.20
2013,06,18,20,15,18.20
2013,06,18,20,16,18.20
2013,06,18,20,17,18.20
2013,06,18,20,18,18.20
2013,06,18,20,19,18.20
2013,06,18,20,20,18.20
2013,06,18,20,21,18.20
2013,06,18,20,22,18.20
2013,06,18,20,23,18.10
2013,06,18,20,24,18.10
2013,06,18,20,25,18.10
2013,06,18,20,26,17.90
2013,06,18,20,27,17.90
2013,06,18,20,28,17.90
2013,06,18,20,29,17.90
2013,06,18,20,30,17.90
2013,06,18,20,31,17.90
2013,06,18,20,32,17.90
2013,06,18,20,33,17.90
2013,06,18,20,34,17.90
2013,06,18,20,35,17.90
2013,06,18,20,36,17.90
2013,06,18,20,37,17.80
2013,06,18,20,38,17.80
2013,06,18,20,39,17.70
2013,06,18,20,40,17.70
2013,06,18,20,41,17.60
2013,06,18,20,42,17.50
2013,06,18,20,43,17.50
2013,06,18,20,44,17.40
2013,06,18,20,45,17.40
2013,06,18,20,46,17.30
2013,06,18,20,47,17.30
2013,06,18,20,48,17.30
2013,06,18,20,49,17.30
2013,06,18,20,50,17.30
2013,06,18,20,51,17.30
2013,06,18,20,52,17.20
2013,06,18,20,53,17.20
2013,06,18,20,54,17.20
2013,06,18,20,55,17.20
2013,06,18,20,56,17.20
2013,06,18,20,57,17.20
2013,06,18,20,58,17.20
2013,06,18,20,59,17.20
2013,06,18,21,00,17.20
2013,06,18,21,01,17.20
2013,06,18,21,02,17.20
2013,06,18,21,03,17.20
2013,06,18,21,04,17.20
2013,06,18,21,05,17.20
2013,06,18,23,56,13.70
2013,06,18,23,57,13.70
2013,06,18,23,58,13.70
2013,06,18,23,59,13.70
